{"data":{"norad_id":39208,"intl_designator":"2013-037A","name":"SHIYAN-7 (SY-7)","alt_names":[],"object_type":"PAYLOAD","status":"ACTIVE","operator":null,"country":"PRC","launch_date":"2013-07-19","launch_site_code":"TAISC","launch_vehicle":null,"mission":null,"orbit_class":"UNKNOWN","rcs_meters":1.8615,"size_class":null,"mass_kg":null,"dimensions":null,"purposes":[],"wikipedia_slug":null,"has_3d_model":false,"image_url":null,"decayed_at":null,"tle_current":{"epoch":"2026-05-24T23:59:02.066208Z","epoch_age_seconds":85181,"freshness":"FRESH","line1":"1 39208U 13037A   26144.99932947  .00000442  00000+0  77954-4 0  9990","line2":"2 39208  98.0885 148.3560 0006987 211.9359 148.1425 14.72253530688794","mean_motion":14.7225353,"eccentricity":0.0006987,"inclination_deg":98.0885,"raan_deg":148.356,"arg_perigee_deg":211.9359,"mean_anomaly_deg":148.1425,"bstar":7.7954e-5,"rev_number":68879,"period_min":97.809240776621,"perigee_km":648.96985493465,"apogee_km":658.79639986068,"semimajor_km":7032.0201273977,"source":"CELESTRAK","updated_at":"2026-05-25T13:37:55.369763Z"}}}